Year,Month,Day,Hour,Minute,Value (Times are PST for windgust in km/hr)
2021,09,29,00,00,3.20
2021,09,29,00,06,9.60
2021,09,29,00,07,3.20
2021,09,29,00,08,11.30
2021,09,29,00,09,14.50
2021,09,29,00,10,6.40
2021,09,29,00,11,4.80
2021,09,29,00,13,1.60
2021,09,29,00,18,1.60
2021,09,29,00,21,3.20
2021,09,29,00,22,1.60
2021,09,29,00,24,6.40
2021,09,29,00,25,11.30
2021,09,29,00,26,16.10
2021,09,29,00,27,1.60
2021,09,29,00,30,8.10
2021,09,29,00,31,9.60
2021,09,29,00,32,1.60
2021,09,29,00,33,3.20
2021,09,29,00,34,12.90
2021,09,29,00,35,1.60
2021,09,29,00,36,3.20
2021,09,29,00,38,1.60
2021,09,29,00,40,3.20
2021,09,29,00,47,1.60
2021,09,29,01,32,1.60
2021,09,29,02,13,4.80
2021,09,29,02,14,1.60
2021,09,29,02,18,8.10
2021,09,29,02,19,1.60
2021,09,29,02,27,3.20
2021,09,29,04,14,1.60
2021,09,29,06,49,1.60
2021,09,29,15,22,27.40
2021,09,29,15,23,16.10
2021,09,29,15,24,8.10
2021,09,29,15,25,24.20
2021,09,29,15,26,9.60
2021,09,29,15,27,1.60
2021,09,29,15,28,20.90
2021,09,29,15,29,12.90
2021,09,29,15,30,20.90
2021,09,29,15,31,20.90
2021,09,29,15,32,17.70
2021,09,29,15,33,24.20
2021,09,29,15,34,12.90
2021,09,29,15,35,9.60
2021,09,29,15,37,1.60
2021,09,29,15,39,27.40
2021,09,29,15,40,16.10
2021,09,29,15,41,12.90
2021,09,29,15,43,3.20
2021,09,29,15,44,3.20
2021,09,29,15,46,6.40
2021,09,29,15,51,1.60
2021,09,29,15,52,1.60
2021,09,29,15,53,1.60
2021,09,29,15,54,1.60
2021,09,29,15,55,1.60
2021,09,29,15,56,1.60
2021,09,29,15,57,8.10
2021,09,29,15,58,22.50
2021,09,29,15,59,27.40
2021,09,29,16,00,19.30
2021,09,29,16,02,9.60
2021,09,29,16,03,25.70
2021,09,29,16,04,19.30
2021,09,29,16,05,24.20
2021,09,29,16,06,12.90
2021,09,29,16,07,4.80
2021,09,29,16,09,8.10
2021,09,29,16,10,14.50
2021,09,29,16,11,16.10
2021,09,29,16,12,19.30
2021,09,29,16,13,20.90
2021,09,29,16,14,8.10
2021,09,29,16,15,3.20
2021,09,29,16,16,16.10
2021,09,29,16,17,11.30
2021,09,29,16,18,1.60
2021,09,29,16,19,4.80
2021,09,29,16,21,1.60
2021,09,29,16,22,6.40
2021,09,29,16,24,6.40
2021,09,29,16,25,14.50
2021,09,29,16,26,3.20
2021,09,29,16,27,6.40
2021,09,29,16,28,1.60
2021,09,29,17,03,8.10
2021,09,29,17,06,1.60
2021,09,29,17,14,12.90
2021,09,29,17,15,9.60
2021,09,29,17,20,1.60
2021,09,29,20,19,1.60
2021,09,29,20,21,4.80
2021,09,29,20,22,1.60
2021,09,29,21,11,1.60
2021,09,29,21,16,11.30
2021,09,29,21,30,1.60
2021,09,29,21,42,4.80
2021,09,29,21,43,1.60
2021,09,29,21,46,1.60
2021,09,29,21,47,1.60
2021,09,29,21,50,1.60
2021,09,29,21,56,1.60
2021,09,29,22,09,1.60
2021,09,29,22,16,8.10
2021,09,29,22,17,1.60
2021,09,29,22,19,1.60
2021,09,29,22,20,12.90
2021,09,29,22,21,14.50
2021,09,29,22,23,14.50
2021,09,29,22,24,32.20
2021,09,29,22,25,11.30
2021,09,29,22,26,14.50
2021,09,29,22,27,22.50
2021,09,29,22,28,19.30
2021,09,29,22,29,35.40
2021,09,29,22,30,30.60
2021,09,29,22,31,19.30
2021,09,29,22,32,32.20
2021,09,29,22,33,27.40
2021,09,29,22,34,29.00
2021,09,29,22,35,32.20
2021,09,29,22,36,27.40
2021,09,29,22,37,35.40
2021,09,29,22,38,32.20
2021,09,29,22,39,33.80
2021,09,29,22,40,27.40
2021,09,29,22,41,41.80
2021,09,29,22,42,35.40
2021,09,29,22,43,54.70
2021,09,29,22,44,37.00
2021,09,29,22,45,43.50
2021,09,29,22,46,25.70
2021,09,29,22,47,37.00
2021,09,29,22,48,33.80
2021,09,29,22,49,41.80
2021,09,29,22,50,40.20
2021,09,29,22,51,27.40
2021,09,29,22,52,41.80
2021,09,29,22,53,38.60
2021,09,29,22,54,25.70
2021,09,29,22,55,9.60
2021,09,29,22,56,40.20
2021,09,29,22,57,30.60
2021,09,29,22,58,46.70
2021,09,29,22,59,30.60
2021,09,29,23,00,30.60
2021,09,29,23,01,38.60
2021,09,29,23,02,22.50
2021,09,29,23,03,24.20
2021,09,29,23,04,27.40
2021,09,29,23,05,30.60
2021,09,29,23,06,33.80
2021,09,29,23,07,19.30
2021,09,29,23,08,17.70
2021,09,29,23,09,22.50
2021,09,29,23,10,27.40
2021,09,29,23,11,35.40
2021,09,29,23,12,48.30
2021,09,29,23,13,37.00
2021,09,29,23,14,19.30
2021,09,29,23,15,32.20
2021,09,29,23,16,17.70
2021,09,29,23,17,3.20
2021,09,29,23,18,24.20
2021,09,29,23,19,3.20
2021,09,29,23,20,24.20
2021,09,29,23,21,22.50
2021,09,29,23,22,19.30
2021,09,29,23,23,22.50
2021,09,29,23,24,11.30
2021,09,29,23,25,37.00
2021,09,29,23,26,43.50
2021,09,29,23,27,33.80
2021,09,29,23,28,29.00
2021,09,29,23,29,16.10
2021,09,29,23,30,32.20
2021,09,29,23,31,17.70
2021,09,29,23,32,14.50
2021,09,29,23,33,24.20
2021,09,29,23,34,35.40
2021,09,29,23,35,3.20
2021,09,29,23,36,1.60
2021,09,29,23,37,9.60
2021,09,29,23,38,1.60
2021,09,29,23,39,3.20
2021,09,29,23,40,41.80
2021,09,29,23,41,38.60
2021,09,29,23,42,35.40
2021,09,29,23,43,32.20
2021,09,29,23,44,20.90
2021,09,29,23,45,19.30
2021,09,29,23,46,12.90
2021,09,29,23,47,14.50
2021,09,29,23,48,22.50
2021,09,29,23,49,6.40
2021,09,29,23,50,3.20
2021,09,29,23,52,6.40
2021,09,29,23,53,37.00
2021,09,29,23,54,17.70
2021,09,29,23,55,12.90
2021,09,29,23,56,48.30
2021,09,29,23,57,29.00
2021,09,29,23,58,20.90
2021,09,29,23,59,14.50
